DW3611 Weather Reports


Display with metric or nautical units.
time (UTC)temp
F
wind
direction
speed
MPH
gust
MPH
rain 1hr
in
rain 24hr
in
rain mn
in
humidity
%
barometer
mb
20260906101523 72 294 0.0 0.0 0.00 0.00 0.00 93 1013.4
20260906101016 72 294 0.0 0.0 0.00 0.00 0.00 94 1013.4
20260906100503 72 294 0.0 0.0 0.00 0.00 0.00 93 1013.4
20260906100031 72 292 0.0 0.0 0.00 0.00 0.00 94 1013.2
20260906095503 72 292 0.0 0.0 0.00 0.00 0.00 93 1013.2
20260906095016 72 292 0.0 0.0 0.00 0.00 0.00 94 1013.3
20260906094525 73 292 0.0 0.0 0.00 0.00 0.00 94 1013.3
20260906094007 73 292 0.0 0.0 0.00 0.00 0.00 94 1013.2
20260906093516 73 292 0.0 0.0 0.00 0.00 0.00 94 1013.3
20260906093018 73 291 0.0 0.0 0.00 0.00 0.00 93 1013.3
20260906092512 73 291 0.0 0.0 0.00 0.00 0.00 94 1013.3
20260906092003 73 292 0.0 0.0 0.00 0.00 0.00 93 1013.4
20260906091503 73 292 0.0 0.0 0.00 0.00 0.00 93 1013.4
20260906091003 73 292 0.0 0.0 0.00 0.00 0.00 93 1013.3
20260906090518 73 292 0.0 0.0 0.00 0.00 0.00 93 1013.2
20260906090004 73 292 0.0 0.0 0.00 0.00 0.00 93 1013.1
20260906085516 73 292 0.0 0.0 0.00 0.00 0.00 93 1013.1
20260906085004 73 292 0.0 0.0 0.00 0.00 0.00 93 1013.2
20260906084538 73 292 0.0 0.0 0.00 0.00 0.00 93 1013.2
20260906084013 73 292 0.0 0.0 0.00 0.00 0.00 93 1013.1
20260906083507 73 292 0.0 0.0 0.00 0.00 0.00 93 1013.2
20260906083010 73 292 0.0 0.0 0.00 0.00 0.00 93 1013.2
20260906082508 73 292 0.0 0.0 0.00 0.00 0.00 93 1013.4
20260906082011 73 292 0.0 0.0 0.00 0.00 0.00 93 1013.5
20260906081536 73 292 0.0 0.0 0.00 0.00 0.00 93 1013.5
20260906081013 73 292 0.0 0.0 0.00 0.00 0.00 93 1013.5
20260906080517 73 292 0.0 0.0 0.00 0.00 0.00 93 1013.5
20260906080004 73 292 0.0 0.0 0.00 0.00 0.00 93 1013.4
20260906075503 73 292 0.0 0.0 0.00 0.00 0.00 93 1013.5
20260906075003 74 292 0.0 0.0 0.00 0.00 0.00 93 1013.6
20260906074506 74 292 0.0 0.0 0.00 0.00 0.00 93 1013.5
20260906074003 74 63 0.0 0.0 0.00 0.00 0.00 93 1013.6
20260906073502 74 63 0.0 0.0 0.00 0.00 0.00 93 1013.6
20260906072507 74 64 0.0 0.0 0.00 0.00 0.00 93 1013.7
20260906072007 74 65 0.0 0.0 0.00 0.00 0.00 93 1013.7
20260906071513 74 64 0.0 0.0 0.00 0.00 0.00 93 1013.7
20260906071019 74 64 0.0 0.0 0.00 0.00 0.00 93 1013.7
20260906070515 74 64 0.0 0.0 0.00 0.00 0.00 93 1013.7
20260906070035 74 65 0.0 0.0 0.00 0.00 0.00 93 1013.8
20260906065516 74 64 0.0 0.0 0.00 0.00 0.00 93 1013.9
20260906065014 74 65 0.0 0.0 0.00 0.00 0.00 93 1013.9
20260906064505 74 64 0.0 0.0 0.00 0.00 0.00 93 1013.8
20260906064018 74 64 0.0 0.0 0.00 0.00 0.00 93 1013.8
20260906063503 74 64 0.0 0.0 0.00 0.00 0.00 93 1013.8
20260906063037 74 64 0.0 0.0 0.00 0.00 0.00 93 1013.7
20260906062503 74 64 0.0 0.0 0.00 0.00 0.00 93 1013.7
20260906062018 74 64 0.0 0.0 0.00 0.00 0.00 93 1013.7
20260906061516 74 65 0.0 0.0 0.00 0.00 0.00 93 1013.7
20260906061016 74 65 0.0 0.0 0.00 0.00 0.00 93 1013.7
20260906060511 74 65 0.0 0.0 0.00 0.00 0.00 93 1013.7
20260906060035 74 65 0.0 0.0 0.00 0.00 0.00 93 1013.6
20260906055514 74 65 0.0 0.0 0.00 0.00 0.00 93 1013.6
20260906055010 74 64 0.0 0.0 0.00 0.00 0.00 93 1013.6
20260906054523 74 64 0.0 0.0 0.00 0.00 0.00 93 1013.6
20260906054017 74 64 0.0 0.0 0.00 0.00 0.00 93 1013.6
20260906053515 74 64 0.0 0.0 0.00 0.00 0.00 93 1013.6
20260906053036 74 65 0.0 0.0 0.00 0.00 0.00 93 1013.7
20260906052518 74 294 0.0 0.0 0.00 0.00 0.00 93 1013.7
20260906052006 74 294 0.0 0.0 0.00 0.00 0.00 93 1013.6
20260906051007 74 294 0.0 0.0 0.00 0.00 0.00 93 1013.5
20260906050519 74 292 0.0 0.0 0.00 0.00 0.00 93 1013.4
20260906045528 74 292 0.0 0.0 0.00 0.00 0.00 93 1013.4
20260906045018 74 292 0.0 0.0 0.00 0.00 0.00 93 1013.2
20260906044527 74 292 0.0 0.0 0.00 0.00 0.00 93 1013.2
20260906044012 74 292 0.0 0.0 0.00 0.00 0.00 93 1013.1
20260906043520 74 293 0.0 0.0 0.00 0.00 0.00 93 1013.0
20260906043026 74 293 0.0 0.0 0.00 0.00 0.00 93 1013.0
20260906042513 74 360 0.0 0.0 0.00 0.00 0.00 93 1012.9
20260906042017 74 349 0.0 0.0 0.00 0.00 0.00 93 1013.0
20260906041529 74 349 0.0 0.0 0.00 0.00 0.00 93 1013.0
20260906041019 74 349 0.0 0.0 0.00 0.00 0.00 93 1013.1
20260906040521 74 350 0.0 0.0 0.00 0.00 0.00 93 1013.1
20260906040011 74 349 0.0 0.0 0.00 0.00 0.00 93 1013.1
20260906035508 74 350 0.0 0.0 0.00 0.00 0.00 93 1013.1
20260906035021 74 349 0.0 0.0 0.00 0.00 0.00 92 1013.1
20260906034516 74 349 0.0 0.0 0.00 0.00 0.00 92 1013.1
20260906034013 74 350 0.0 0.0 0.00 0.00 0.00 93 1013.1
20260906033513 74 350 0.0 0.0 0.00 0.00 0.00 93 1013.0
20260906033033 75 350 0.0 0.0 0.00 0.00 0.00 93 1013.0
20260906032518 74 300 0.0 0.0 0.00 0.00 0.00 93 1012.8
20260906032017 75 300 0.0 0.0 0.00 0.00 0.00 93 1012.8
20260906031546 75 299 0.0 0.0 0.00 0.00 0.00 93 1012.8
20260906031017 75 299 0.0 0.0 0.00 0.00 0.00 93 1012.7
20260906030518 75 298 0.0 0.0 0.00 0.00 0.00 93 1012.7
20260906030034 75 298 0.0 0.0 0.00 0.00 0.00 92 1012.7
20260906025518 75 297 0.0 0.0 0.00 0.00 0.00 92 1012.7
20260906025016 75 297 0.0 0.0 0.00 0.00 0.00 92 1012.6
20260906024502 75 296 0.0 0.0 0.00 0.00 0.00 92 1012.7
20260906024002 75 296 0.0 0.0 0.00 0.00 0.00 92 1012.6
20260906023502 75 297 0.0 0.0 0.00 0.00 0.00 93 1012.7
20260906023003 75 296 0.0 0.0 0.00 0.00 0.00 93 1012.7
20260906022505 75 296 0.0 0.0 0.00 0.00 0.00 93 1012.7
20260906022003 75 296 0.0 0.0 0.00 0.00 0.00 92 1012.8
20260906021505 75 295 0.0 0.0 0.00 0.00 0.00 93 1012.6
20260906021003 75 295 0.0 0.0 0.00 0.00 0.00 92 1012.6
20260906020503 76 295 0.0 0.0 0.00 0.00 0.00 92 1012.9
20260906020003 75 295 0.0 0.0 0.00 0.00 0.00 92 1012.7
20260906015504 76 360 0.0 0.0 0.00 0.00 0.00 92 1012.7
20260906015004 76 296 0.0 0.0 0.00 0.00 0.00 92 1012.8
20260906014504 76 296 0.0 0.0 0.00 0.00 0.00 92 1012.8
20260906014007 76 296 0.0 0.0 0.00 0.00 0.00 92 1012.8
20260906013503 76 296 0.0 0.0 0.00 0.00 0.00 92 1012.7
20260906013003 76 296 0.0 0.0 0.00 0.00 0.00 92 1012.6
20260906012502 0 0.0 0.0 0.00 0.00 0.00 1012.6
20260906012002 0 0.0 0.0 0.00 0.00 0.00 1012.8
20260906011510 0 0.0 0.0 0.00 0.00 0.00 1012.9
20260906011006 0 0.0 0.0 0.00 0.00 0.00 1012.9
20260906010503 0 0.0 0.0 0.00 0.00 0.00 1012.9
20260906010002 0 0.0 0.0 0.00 0.00 0.00 1013.0
20260906005503 0 0.0 0.0 0.00 0.00 0.00 1013.2
20260906005003 0 0.0 0.0 0.00 0.00 0.00 1013.1
20260906004504 0 0.0 0.0 0.00 0.00 0.00 1013.1
20260906004003 0 0.0 0.0 0.00 0.00 0.00 1013.2
20260906003503 0 0.0 0.0 0.00 0.00 0.00 1013.3
20260906003003 0 0.0 0.0 0.00 0.00 0.00 1013.3
20260906002503 0 0.0 0.0 0.00 0.00 0.00 1013.4
20260906002004 0 0.0 0.0 0.00 0.00 0.00 1013.4
20260906001503 0 0.0 0.0 0.00 0.00 0.00 1013.4
20260906001003 0 0.0 0.0 0.00 0.00 0.00 1013.4
20260906000503 0 0.0 0.0 0.00 0.00 0.00 1013.4
20260906000004 0 0.0 0.0 0.00 0.00 0.00 1013.4
20260905235503 0 0.0 0.0 0.00 0.00 0.00 1013.4
20260905235003 0 0.0 0.0 0.00 0.00 0.00 1013.5
20260905234507 0 0.0 0.0 0.00 0.00 0.00 1013.6
20260905234004 0 0.0 0.0 0.00 0.00 0.00 1013.8
20260905233505 0 0.0 0.0 0.00 0.00 0.00 1013.8
20260905233006 0 0.0 0.0 0.00 0.00 0.00 1013.9
20260905232508 0 0.0 0.0 0.00 0.00 0.00 1014.0
20260905232004 0 0.0 0.0 0.00 0.00 0.00 1013.9
20260905231508 0 0.0 0.0 0.00 0.00 0.00 1014.0
20260905231003 0 0.0 0.0 0.00 0.00 0.00 1014.0
20260905230504 0 0.0 0.0 0.00 0.00 0.00 1014.0
20260905230010 0 0.0 0.0 0.00 0.00 0.00 1014.0
20260905225503 0 0.0 0.0 0.00 0.00 0.00 1013.9
20260905225004 0 0.0 0.0 0.00 0.00 0.00 1013.9
20260905224503 0 0.0 0.0 0.00 0.00 0.00 1013.7
20260905224004 0 0.0 0.0 0.00 0.00 0.00 1013.7
20260905223505 0 0.0 0.0 0.00 0.00 0.00 1013.6
20260905223025 0 0.0 0.0 0.00 0.00 0.00 1013.7
20260905222504 0 0.0 0.0 0.00 0.00 0.00 1013.6
20260905222003 0 0.0 0.0 0.00 0.00 0.00 1013.5
20260905221510 0 0.0 0.0 0.00 0.00 0.00 1013.4
20260905221005 0 0.0 0.0 0.00 0.00 0.00 1013.4
20260905220505 0 0.0 0.0 0.00 0.00 0.00 1013.4
20260905220005 0 0.0 0.0 0.00 0.00 0.00 1013.4
20260905215509 0 0.0 0.0 0.00 0.00 0.00 1013.3
20260905215004 0 0.0 0.0 0.00 0.00 0.00 1013.3
20260905214508 0 0.0 0.0 0.00 0.00 0.00 1013.5
20260905214007 0 0.0 0.0 0.00 0.00 0.00 1013.5
20260905213506 0 0.0 0.0 0.00 0.00 0.00 1013.6
20260905213008 0 0.0 0.0 0.00 0.00 0.00 1013.8
20260905212508 0 0.0 0.0 0.00 0.00 0.00 1013.9
20260905212008 0 0.0 0.0 0.00 0.00 0.00 1013.8
20260905211539 0 0.0 0.0 0.00 0.00 0.00 1013.7
20260905211006 0 0.0 0.0 0.00 0.00 0.00 1013.8
20260905210506 0 0.0 0.0 0.00 0.00 0.00 1013.8
20260905210011 0 0.0 0.0 0.00 0.00 0.00 1013.7
20260905205503 0 0.0 0.0 0.00 0.00 0.00 1013.9
20260905205007 0 0.0 0.0 0.00 0.00 0.00 1013.9
20260905204514 0 0.0 0.0 0.00 0.00 0.00 1013.9
20260905204007 0 0.0 0.0 0.00 0.00 0.00 1013.8
20260905203508 0 0.0 0.0 0.00 0.00 0.00 1013.9
20260905203010 0 0.0 0.0 0.00 0.00 0.00 1014.0
20260905202505 0 0.0 0.0 0.00 0.00 0.00 1014.2
20260905202006 0 0.0 0.0 0.00 0.00 0.00 1014.3
20260905201516 0 0.0 0.0 0.00 0.00 0.00 1014.4
20260905201008 0 0.0 0.0 0.00 0.00 0.00 1014.4
20260905200509 0 0.0 0.0 0.00 0.00 0.00 1014.5
20260905200012 0 0.0 0.0 0.00 0.00 0.00 1014.4
20260905195512 0 0.0 0.0 0.00 0.00 0.00 1014.4
20260905195007 0 0.0 0.0 0.00 0.00 0.00 1014.1
20260905194517 0 0.0 0.0 0.00 0.00 0.00 1014.3
20260905194011 0 0.0 0.0 0.00 0.00 0.00 1014.1
20260905193509 0 0.0 0.0 0.00 0.00 0.00 1014.0
20260905193012 0 0.0 0.0 0.00 0.00 0.00 1013.9
20260905192508 0 0.0 0.0 0.00 0.00 0.00 1013.9
20260905192013 0 0.0 0.0 0.00 0.00 0.00 1013.9
20260905191511 0 0.0 0.0 0.00 0.00 0.00 1013.9
20260905191011 0 0.0 0.0 0.00 0.00 0.00 1013.7
20260905190511 0 0.0 0.0 0.00 0.00 0.00 1013.6
20260905190015 0 0.0 0.0 0.00 0.00 0.00 1013.6
20260905185512 0 0.0 0.0 0.00 0.00 0.00 1013.7
20260905185009 0 0.0 0.0 0.00 0.00 0.00 1013.7
20260905184517 0 0.0 0.0 0.00 0.00 0.00 1013.7
20260905184010 0 0.0 0.0 0.00 0.00 0.00 1013.7
20260905183513 0 0.0 0.0 0.00 0.00 0.00 1013.8
20260905183016 0 0.0 0.0 0.00 0.00 0.00 1013.9
20260905182511 0 0.0 0.0 0.00 0.00 0.00 1014.0
20260905182011 0 0.0 0.0 0.00 0.00 0.00 1014.0
20260905181518 0 0.0 0.0 0.00 0.00 0.00 1014.0
20260905181010 0 0.0 0.0 0.00 0.00 0.00 1014.2
20260905180512 0 0.0 0.0 0.00 0.00 0.00 1014.3
20260905180016 0 0.0 0.0 0.00 0.00 0.00 1014.3
20260905175511 0 0.0 0.0 0.00 0.00 0.00 1014.3
20260905175014 0 0.0 0.0 0.00 0.00 0.00 1014.3
20260905174519 0 0.0 0.0 0.00 0.00 0.00 1014.4
20260905174011 0 0.0 0.0 0.00 0.00 0.00 1014.5
20260905173513 0 0.0 0.0 0.00 0.00 0.00 1014.5
20260905173023 0 0.0 0.0 0.00 0.00 0.00 1014.5
20260905172513 0 0.0 0.0 0.00 0.00 0.00 1014.5
20260905172015 0 0.0 0.0 0.00 0.00 0.00 1014.5
20260905171538 0 0.0 0.0 0.00 0.00 0.00 1014.6
20260905171021 0 0.0 0.0 0.00 0.00 0.00 1014.8
20260905170514 0 0.0 0.0 0.00 0.00 0.00 1014.9
20260905170027 0 0.0 0.0 0.00 0.00 0.00 1015.0
20260905165513 0 0.0 0.0 0.00 0.00 0.00 1015.1
20260905165012 0 0.0 0.0 0.00 0.00 0.00 1015.0
20260905164520 0 0.0 0.0 0.00 0.00 0.00 1015.1
20260905164012 0 0.0 0.0 0.00 0.00 0.00 1015.2
20260905163515 0 0.0 0.0 0.00 0.00 0.00 1015.1
20260905163026 0 0.0 0.0 0.00 0.00 0.00 1015.2
20260905162513 0 0.0 0.0 0.00 0.00 0.00 1015.1
20260905162018 0 0.0 0.0 0.00 0.00 0.00 1015.1
20260905161535 0 0.0 0.0 0.00 0.00 0.00 1015.2
20260905161017 0 0.0 0.0 0.00 0.00 0.00 1015.2
20260905160515 0 0.0 0.0 0.00 0.00 0.00 1015.2
20260905160037 0 0.0 0.0 0.00 0.00 0.00 1015.3
20260905155514 0 0.0 0.0 0.00 0.00 0.00 1015.2
20260905155014 0 0.0 0.0 0.00 0.00 0.00 1015.2
20260905154545 0 0.0 0.0 0.00 0.00 0.00 1015.3
20260905154015 0 0.0 0.0 0.00 0.00 0.00 1015.3
20260905153516 0 0.0 0.0 0.00 0.00 0.00 1015.4
20260905153028 0 0.0 0.0 0.00 0.00 0.00 1015.5
20260905152515 0 0.0 0.0 0.00 0.00 0.00 1015.4
20260905152015 0 0.0 0.0 0.00 0.00 0.00 1015.4
20260905151530 0 0.0 0.0 0.00 0.00 0.00 1015.4
20260905151017 0 0.0 0.0 0.00 0.00 0.00 1015.4
20260905150513 0 0.0 0.0 0.00 0.00 0.00 1015.4
20260905150030 0 0.0 0.0 0.00 0.00 0.00 1015.4
20260905145515 0 0.0 0.0 0.00 0.00 0.00 1015.3
20260905145014 0 0.0 0.0 0.00 0.00 0.00 1015.2
20260905144538 0 0.0 0.0 0.00 0.00 0.00 1015.3
20260905144013 0 0.0 0.0 0.00 0.00 0.00 1015.4
20260905143514 0 0.0 0.0 0.00 0.00 0.00 1015.3
20260905143030 0 0.0 0.0 0.00 0.00 0.00 1015.2
20260905142517 0 0.0 0.0 0.00 0.00 0.00 1015.3
20260905142019 0 0.0 0.0 0.00 0.00 0.00 1015.3
20260905141530 0 0.0 0.0 0.00 0.00 0.00 1015.3
20260905141016 0 0.0 0.0 0.00 0.00 0.00 1015.4
20260905140518 0 0.0 0.0 0.00 0.00 0.00 1015.4
20260905140035 0 0.0 0.0 0.00 0.00 0.00 1015.4
20260905135516 77 0.0 0.0 0.00 0.00 0.00 1015.4
20260905135016 77 0.0 0.0 0.00 0.00 0.00 1015.3
20260905134502 77 0.0 0.0 0.00 0.00 0.00 93 1015.2
20260905134016 77 202 0.0 0.0 0.00 0.00 0.00 93 1015.2
20260905133505 77 202 0.0 0.0 0.00 0.00 0.00 93 1015.2
20260905133033 76 202 0.0 0.0 0.00 0.00 0.00 93 1015.2
20260905132514 76 202 0.0 0.0 0.00 0.00 0.00 93 1015.1
20260905132013 76 202 0.0 0.0 0.00 0.00 0.00 93 1015.1
20260905131511 76 202 0.0 0.0 0.00 0.00 0.00 93 1015.1
20260905131008 76 202 0.0 0.0 0.00 0.00 0.00 93 1015.0
20260905130517 76 202 0.0 0.0 0.00 0.00 0.00 93 1015.0
20260905130019 76 202 0.0 0.0 0.00 0.00 0.00 93 1015.0
20260905125505 76 203 0.0 0.0 0.00 0.00 0.00 93 1014.9
20260905125002 76 204 0.0 0.0 0.00 0.00 0.00 93 1014.8
20260905124503 76 204 0.0 0.0 0.00 0.00 0.00 93 1014.7
20260905124003 76 204 0.0 0.0 0.00 0.00 0.00 92 1014.7
20260905123516 76 203 0.0 0.0 0.00 0.00 0.00 92 1014.6
20260905123031 76 203 0.0 0.0 0.00 0.00 0.00 92 1014.5
20260905122506 76 203 0.0 0.0 0.00 0.00 0.00 92 1014.6
20260905122014 76 203 0.0 0.0 0.00 0.00 0.00 93 1014.5
20260905121509 76 203 0.0 0.0 0.00 0.00 0.00 93 1014.4
20260905121008 76 203 0.0 0.0 0.00 0.00 0.00 93 1014.4
20260905120510 76 203 0.0 0.0 0.00 0.00 0.00 93 1014.4
20260905120036 76 203 0.0 0.0 0.00 0.00 0.00 93 1014.4
20260905115513 76 203 0.0 0.0 0.00 0.00 0.00 93 1014.3
20260905115012 76 203 0.0 0.0 0.00 0.00 0.00 93 1014.3
20260905114521 76 203 0.0 0.0 0.00 0.00 0.00 93 1014.4
20260905114018 76 203 0.0 0.0 0.00 0.00 0.00 93 1014.3
20260905113517 76 203 0.0 0.0 0.00 0.00 0.00 92 1014.2
20260905113007 76 203 0.0 0.0 0.00 0.00 0.00 92 1014.1
20260905112503 76 203 0.0 0.0 0.00 0.00 0.00 92 1013.9
20260905112016 76 203 0.0 0.0 0.00 0.00 0.00 92 1013.9
20260905111510 76 203 0.0 0.0 0.00 0.00 0.00 92 1014.0
20260905111016 76 203 0.0 0.0 0.00 0.00 0.00 92 1014.0
20260905110517 76 203 0.0 0.0 0.00 0.00 0.00 92 1013.9
20260905110030 76 203 0.0 0.0 0.00 0.00 0.00 92 1014.0
20260905105509 76 203 0.0 0.0 0.00 0.00 0.00 92 1014.0
20260905105013 76 203 0.0 0.0 0.00 0.00 0.00 92 1013.9
20260905104541 76 203 0.0 0.0 0.00 0.00 0.00 92 1013.9
20260905104012 76 203 0.0 0.0 0.00 0.00 0.00 92 1013.9
20260905103514 76 203 0.0 0.0 0.00 0.00 0.00 92 1013.8
20260905103036 76 203 0.0 0.0 0.00 0.00 0.00 92 1013.8
20260905102518 76 203 0.0 0.0 0.00 0.00 0.00 92 1013.8
20260905102002 76 203 0.0 0.0 0.00 0.00 0.00 92 1013.8